Time,TemperatureF,DewpointF,PressureIn,WindDirection,WindDirectionDegrees,WindSpeedMPH,WindSpeedGustMPH,Humidity,HourlyPrecipIn,Conditions,Clouds,dailyrainin,SoftwareType,DateUTC
2014-02-08 00:02:00,21.0,-99.9,-100.00,North,-999,-999.0,-999.0,-999,0.00,,,0.00,,2014-02-08 07:02:00,
2014-02-08 00:12:00,21.0,-99.9,-100.00,North,-999,-999.0,-999.0,-999,0.00,,,0.00,,2014-02-08 07:12:00,
2014-02-08 00:42:00,21.0,-99.9,-100.00,North,-999,-999.0,-999.0,-999,0.00,,,0.00,,2014-02-08 07:42:00,
2014-02-08 00:53:00,21.0,-99.9,-100.00,North,-999,-999.0,-999.0,-999,0.00,,,0.00,,2014-02-08 07:53:00,
2014-02-08 01:02:00,21.0,-99.9,-100.00,North,-999,-999.0,-999.0,-999,0.00,,,0.00,,2014-02-08 08:02:00,
2014-02-08 01:12:00,21.0,-99.9,-100.00,North,-999,-999.0,-999.0,-999,0.00,,,0.00,,2014-02-08 08:12:00,
2014-02-08 01:42:00,21.0,-99.9,-100.00,North,-999,-999.0,-999.0,-999,0.00,,,0.00,,2014-02-08 08:42:00,
2014-02-08 01:52:00,21.0,-99.9,-100.00,North,-999,-999.0,-999.0,-999,0.00,,,0.00,,2014-02-08 08:52:00,
2014-02-08 02:02:00,21.0,-99.9,-100.00,North,-999,-999.0,-999.0,-999,0.00,,,0.00,,2014-02-08 09:02:00,
2014-02-08 02:12:00,21.0,-99.9,-100.00,North,-999,-999.0,-999.0,-999,0.00,,,0.00,,2014-02-08 09:12:00,
2014-02-08 02:44:00,22.0,-99.9,-100.00,North,-999,-999.0,-999.0,-999,0.00,,,0.00,,2014-02-08 09:44:00,
2014-02-08 02:53:00,22.0,-99.9,-100.00,North,-999,-999.0,-999.0,-999,0.00,,,0.00,,2014-02-08 09:53:00,
2014-02-08 03:03:00,22.0,-99.9,-100.00,North,-999,-999.0,-999.0,-999,0.00,,,0.00,,2014-02-08 10:03:00,
2014-02-08 03:13:00,22.0,-99.9,-100.00,North,-999,-999.0,-999.0,-999,0.00,,,0.00,,2014-02-08 10:13:00,
2014-02-08 03:43:00,24.0,-99.9,-100.00,North,-999,-999.0,-999.0,-999,0.00,,,-99.99,,2014-02-08 10:43:00,
2014-02-08 03:53:00,24.0,-99.9,-100.00,North,-999,-999.0,-999.0,-999,0.00,,,-99.99,,2014-02-08 10:53:00,
2014-02-08 04:02:00,24.0,-99.9,-100.00,North,-999,-999.0,-999.0,-999,0.00,,,-99.99,,2014-02-08 11:02:00,
2014-02-08 04:12:00,24.0,-99.9,-100.00,North,-999,-999.0,-999.0,-999,0.00,,,-99.99,,2014-02-08 11:12:00,
2014-02-08 04:43:00,22.0,-99.9,-100.00,North,-999,-999.0,-999.0,-999,0.00,,,0.00,,2014-02-08 11:43:00,
2014-02-08 04:53:00,22.0,-99.9,-100.00,North,-999,-999.0,-999.0,-999,0.00,,,0.00,,2014-02-08 11:53:00,
2014-02-08 05:02:00,22.0,-99.9,-100.00,North,-999,-999.0,-999.0,-999,0.00,,,0.00,,2014-02-08 12:02:00,
2014-02-08 05:12:00,22.0,-99.9,-100.00,North,-999,-999.0,-999.0,-999,0.00,,,0.00,,2014-02-08 12:12:00,
2014-02-08 05:42:00,22.0,-99.9,-100.00,North,-999,-999.0,-999.0,-999,0.00,,,0.00,,2014-02-08 12:42:00,
2014-02-08 05:52:00,22.0,-99.9,-100.00,North,-999,-999.0,-999.0,-999,0.00,,,0.00,,2014-02-08 12:52:00,
2014-02-08 06:02:00,22.0,-99.9,-100.00,North,-999,-999.0,-999.0,-999,0.00,,,0.00,,2014-02-08 13:02:00,
2014-02-08 06:12:00,22.0,-99.9,-100.00,North,-999,-999.0,-999.0,-999,0.00,,,0.00,,2014-02-08 13:12:00,
2014-02-08 06:42:00,22.0,-99.9,-100.00,North,-999,-999.0,-999.0,-999,0.00,,,0.00,,2014-02-08 13:42:00,
2014-02-08 06:52:00,22.0,-99.9,-100.00,North,-999,-999.0,-999.0,-999,0.00,,,0.00,,2014-02-08 13:52:00,
2014-02-08 07:02:00,22.0,-99.9,-100.00,North,-999,-999.0,-999.0,-999,0.00,,,0.00,,2014-02-08 14:02:00,
2014-02-08 07:12:00,22.0,-99.9,-100.00,North,-999,-999.0,-999.0,-999,0.00,,,0.00,,2014-02-08 14:12:00,
2014-02-08 07:42:00,22.0,-99.9,-100.00,North,-999,-999.0,-999.0,-999,0.00,,,0.00,,2014-02-08 14:42:00,
2014-02-08 07:52:00,22.0,-99.9,-100.00,North,-999,-999.0,-999.0,-999,0.00,,,0.00,,2014-02-08 14:52:00,
2014-02-08 08:02:00,22.0,-99.9,-100.00,North,-999,-999.0,-999.0,-999,0.00,,,0.00,,2014-02-08 15:02:00,
2014-02-08 08:12:00,22.0,-99.9,-100.00,North,-999,-999.0,-999.0,-999,0.00,,,0.00,,2014-02-08 15:12:00,
2014-02-08 08:44:00,24.0,-99.9,-100.00,North,-999,-999.0,-999.0,-999,0.00,,,0.00,,2014-02-08 15:44:00,
2014-02-08 08:54:00,24.0,-99.9,-100.00,North,-999,-999.0,-999.0,-999,0.00,,,0.00,,2014-02-08 15:54:00,
2014-02-08 09:03:00,24.0,-99.9,-100.00,North,-999,-999.0,-999.0,-999,0.00,,,0.00,,2014-02-08 16:03:00,
2014-02-08 09:13:00,24.0,-99.9,-100.00,North,-999,-999.0,-999.0,-999,0.00,,,0.00,,2014-02-08 16:13:00,
2014-02-08 09:44:00,29.0,-99.9,-100.00,North,-999,-999.0,-999.0,-999,0.00,,,0.00,,2014-02-08 16:44:00,
2014-02-08 09:53:00,29.0,-99.9,-100.00,North,-999,-999.0,-999.0,-999,0.00,,,0.00,,2014-02-08 16:53:00,
2014-02-08 10:03:00,29.0,-99.9,-100.00,North,-999,-999.0,-999.0,-999,0.00,,,0.00,,2014-02-08 17:03:00,
2014-02-08 10:13:00,29.0,-99.9,-100.00,North,-999,-999.0,-999.0,-999,0.00,,,0.00,,2014-02-08 17:13:00,
2014-02-08 10:43:00,33.0,-99.9,-100.00,North,-999,-999.0,-999.0,-999,0.00,,,0.00,,2014-02-08 17:43:00,
2014-02-08 10:53:00,33.0,-99.9,-100.00,North,-999,-999.0,-999.0,-999,0.00,,,0.00,,2014-02-08 17:53:00,
2014-02-08 11:02:00,33.0,-99.9,-100.00,North,-999,-999.0,-999.0,-999,0.00,,,0.00,,2014-02-08 18:02:00,
2014-02-08 11:13:00,33.0,-99.9,-100.00,North,-999,-999.0,-999.0,-999,0.00,,,0.00,,2014-02-08 18:13:00,
2014-02-08 11:53:00,36.0,-99.9,-100.00,North,-999,-999.0,-999.0,-999,0.00,,,0.00,,2014-02-08 18:53:00,
2014-02-08 12:02:00,36.0,-99.9,-100.00,North,-999,-999.0,-999.0,-999,0.00,,,0.00,,2014-02-08 19:02:00,
2014-02-08 12:12:00,36.0,-99.9,-100.00,North,-999,-999.0,-999.0,-999,0.00,,,0.00,,2014-02-08 19:12:00,
2014-02-08 12:42:00,37.0,-99.9,-100.00,North,-999,-999.0,-999.0,-999,0.00,,,0.00,,2014-02-08 19:42:00,
2014-02-08 12:52:00,37.0,-99.9,-100.00,North,-999,-999.0,-999.0,-999,0.00,,,0.00,,2014-02-08 19:52:00,
2014-02-08 13:02:00,37.0,-99.9,-100.00,North,-999,-999.0,-999.0,-999,0.00,,,0.00,,2014-02-08 20:02:00,
2014-02-08 13:12:00,37.0,-99.9,-100.00,North,-999,-999.0,-999.0,-999,0.00,,,0.00,,2014-02-08 20:12:00,
2014-02-08 13:42:00,36.0,-99.9,-100.00,North,-999,-999.0,-999.0,-999,0.01,,,0.01,,2014-02-08 20:42:00,
2014-02-08 13:52:00,36.0,-99.9,-100.00,North,-999,-999.0,-999.0,-999,0.01,,,0.01,,2014-02-08 20:52:00,
2014-02-08 14:02:00,36.0,-99.9,-100.00,North,-999,-999.0,-999.0,-999,0.01,,,0.01,,2014-02-08 21:02:00,
2014-02-08 14:12:00,36.0,-99.9,-100.00,North,-999,-999.0,-999.0,-999,0.01,,,0.01,,2014-02-08 21:12:00,
2014-02-08 14:43:00,36.0,-99.9,-100.00,North,-999,-999.0,-999.0,-999,0.05,,,0.06,,2014-02-08 21:43:00,
2014-02-08 14:54:00,36.0,-99.9,-100.00,North,-999,-999.0,-999.0,-999,0.05,,,0.06,,2014-02-08 21:54:00,
2014-02-08 15:04:00,36.0,-99.9,-100.00,North,-999,-999.0,-999.0,-999,0.05,,,0.06,,2014-02-08 22:04:00,
2014-02-08 15:13:00,36.0,-99.9,-100.00,North,-999,-999.0,-999.0,-999,0.05,,,0.06,,2014-02-08 22:13:00,
2014-02-08 15:43:00,34.0,-99.9,-100.00,North,-999,-999.0,-999.0,-999,0.04,,,0.10,,2014-02-08 22:43:00,
2014-02-08 15:53:00,34.0,-99.9,-100.00,North,-999,-999.0,-999.0,-999,0.04,,,0.10,,2014-02-08 22:53:00,
2014-02-08 16:02:00,34.0,-99.9,-100.00,North,-999,-999.0,-999.0,-999,0.04,,,0.10,,2014-02-08 23:02:00,
2014-02-08 16:12:00,34.0,-99.9,-100.00,North,-999,-999.0,-999.0,-999,0.04,,,0.10,,2014-02-08 23:12:00,
2014-02-08 16:43:00,35.0,-99.9,-100.00,North,-999,-999.0,-999.0,-999,0.02,,,0.12,,2014-02-08 23:43:00,
2014-02-08 16:53:00,35.0,-99.9,-100.00,North,-999,-999.0,-999.0,-999,0.02,,,0.12,,2014-02-08 23:53:00,
2014-02-08 17:03:00,35.0,-99.9,-100.00,North,-999,-999.0,-999.0,-999,0.02,,,0.12,,2014-02-09 00:03:00,
2014-02-08 17:12:00,35.0,-99.9,-100.00,North,-999,-999.0,-999.0,-999,0.02,,,0.12,,2014-02-09 00:12:00,
2014-02-08 17:42:00,34.0,-99.9,-100.00,North,-999,-999.0,-999.0,-999,0.01,,,0.13,,2014-02-09 00:42:00,
2014-02-08 17:52:00,34.0,-99.9,-100.00,North,-999,-999.0,-999.0,-999,0.01,,,0.13,,2014-02-09 00:52:00,
2014-02-08 18:02:00,34.0,-99.9,-100.00,North,-999,-999.0,-999.0,-999,0.01,,,0.13,,2014-02-09 01:02:00,
2014-02-08 18:12:00,34.0,-99.9,-100.00,North,-999,-999.0,-999.0,-999,0.01,,,0.13,,2014-02-09 01:12:00,
2014-02-08 19:42:00,33.0,-99.9,-100.00,North,-999,-999.0,-999.0,-999,0.00,,,0.13,,2014-02-09 02:42:00,
2014-02-08 19:52:00,33.0,-99.9,-100.00,North,-999,-999.0,-999.0,-999,0.00,,,0.13,,2014-02-09 02:52:00,
2014-02-08 20:02:00,33.0,-99.9,-100.00,North,-999,-999.0,-999.0,-999,0.00,,,0.13,,2014-02-09 03:02:00,
2014-02-08 20:12:00,33.0,-99.9,-100.00,North,-999,-999.0,-999.0,-999,0.00,,,0.13,,2014-02-09 03:12:00,
2014-02-08 20:44:00,31.0,-99.9,-100.00,North,-999,-999.0,-999.0,-999,0.00,,,0.13,,2014-02-09 03:44:00,
2014-02-08 20:54:00,31.0,-99.9,-100.00,North,-999,-999.0,-999.0,-999,0.00,,,0.13,,2014-02-09 03:54:00,
2014-02-08 21:03:00,31.0,-99.9,-100.00,North,-999,-999.0,-999.0,-999,0.00,,,0.13,,2014-02-09 04:03:00,
2014-02-08 21:13:00,31.0,-99.9,-100.00,North,-999,-999.0,-999.0,-999,0.00,,,0.13,,2014-02-09 04:13:00,
2014-02-08 21:43:00,31.0,-99.9,-100.00,North,-999,-999.0,-999.0,-999,0.00,,,0.13,,2014-02-09 04:43:00,
2014-02-08 21:53:00,31.0,-99.9,-100.00,North,-999,-999.0,-999.0,-999,0.00,,,0.13,,2014-02-09 04:53:00,
2014-02-08 22:03:00,31.0,-99.9,-100.00,North,-999,-999.0,-999.0,-999,0.00,,,0.13,,2014-02-09 05:03:00,
2014-02-08 22:12:00,31.0,-99.9,-100.00,North,-999,-999.0,-999.0,-999,0.00,,,0.13,,2014-02-09 05:12:00,
2014-02-08 22:43:00,30.0,-99.9,-100.00,North,-999,-999.0,-999.0,-999,0.00,,,0.13,,2014-02-09 05:43:00,
2014-02-08 22:53:00,30.0,-99.9,-100.00,North,-999,-999.0,-999.0,-999,0.00,,,0.13,,2014-02-09 05:53:00,
2014-02-08 23:02:00,30.0,-99.9,-100.00,North,-999,-999.0,-999.0,-999,0.00,,,0.13,,2014-02-09 06:02:00,
2014-02-08 23:12:00,30.0,-99.9,-100.00,North,-999,-999.0,-999.0,-999,0.00,,,0.13,,2014-02-09 06:12:00,
2014-02-08 23:43:00,30.0,-99.9,-100.00,North,-999,-999.0,-999.0,-999,0.00,,,0.13,,2014-02-09 06:43:00,
2014-02-08 23:52:00,30.0,-99.9,-100.00,North,-999,-999.0,-999.0,-999,0.00,,,0.13,,2014-02-09 06:52:00,